Wind_Speed
33 34 35 36 36 37 37 37 38 38 38 39 39 40 41 41 42 43 44 45 45 46 47 48 49 49 50 51 52 52 53 53 53 52 53 53 53 53 53 54 54 54 54
34 35 35 36 37 38 38 38 39 39 40 40 41 41 42 43 43 44 45 46 46 47 48 48 49 50 50 51 52 52 53 53 53 52 52 52 52 53 53 53 53 53 53
36 36 37 38 38 38 38 39 40 40 41 42 42 43 43 44 44 45 46 47 48 49 49 49 49 49 50 50 51 51 52 52 52 52 51 51 51 51 51 51 51 52 52
37 38 38 38 38 39 39 39 40 41 42 42 43 43 44 44 44 45 46 47 48 49 49 49 49 49 50 50 50 51 51 51 51 51 51 51 51 51 51 50 51 51 51
39 39 39 39 40 40 40 41 41 42 42 43 43 43 44 44 44 45 45 46 47 48 48 49 49 50 51 50 50 50 51 51 51 51 51 51 51 51 50 50 50 50 50
40 40 40 41 41 41 42 42 42 43 43 43 44 44 44 45 46 46 46 46 46 47 47 48 49 50 50 50 50 51 50 50 51 51 51 51 51 51 50 49 49 48 48
41 41 41 42 42 42 43 43 44 44 44 44 45 45 45 46 46 47 47 46 46 46 47 48 49 49 49 50 50 50 50 50 51 51 50 51 50 50 50 49 48 47 47
42 42 42 42 42 43 43 44 44 44 45 45 45 45 46 46 47 47 47 47 47 47 48 48 49 49 49 49 50 50 50 50 51 51 51 51 50 50 49 48 48 47 47
42 43 43 43 43 43 43 44 44 45 45 46 46 46 46 47 47 48 48 48 48 48 49 49 50 50 50 51 51 50 50 50 51 51 51 50 50 49 48 48 47 46 46
44 44 44 44 44 44 44 44 45 45 45 46 46 46 47 47 48 49 49 49 49 50 50 50 50 51 51 51 51 51 51 51 51 50 50 49 49 48 47 46 46 46 46
45 45 45 45 45 45 45 45 46 46 46 47 47 47 48 49 49 49 49 49 50 50 51 51 51 51 51 51 51 51 51 51 50 50 49 48 47 47 46 46 46 46 46
45 45 45 45 46 46 46 46 46 47 47 47 48 48 48 49 49 49 50 50 50 50 50 51 51 51 51 51 51 51 51 50 49 48 47 46 46 45 45 45 45 45 45
46 46 46 46 46 46 46 47 47 48 48 48 47 48 48 48 49 50 50 50 50 50 51 51 51 51 51 51 51 50 50 49 48 47 47 46 45 45 45 45 45 45 45
47 47 47 47 47 47 47 47 47 47 47 47 48 48 48 48 49 50 49 49 50 50 51 51 51 51 50 50 49 49 48 48 47 47 46 45 45 44 43 43 43 43 43
48 47 47 47 47 47 46 46 47 47 47 47 48 48 49 49 49 49 49 49 50 50 50 50 49 49 49 48 48 47 47 46 46 45 44 44 43 42 42 42 42 42 41
47 47 47 47 46 46 46 46 46 47 47 47 48 48 49 49 49 49 49 50 50 50 50 49 49 48 48 47 46 46 45 44 44 44 43 42 42 41 40 40 40 40 39
47 47 47 47 46 46 46 46 46 46 47 47 47 48 48 49 49 49 50 50 50 49 48 48 48 47 46 46 45 44 43 43 43 42 42 41 40 40 39 39 38 38 38
46 46 46 46 46 46 46 46 46 46 46 46 47 48 49 49 49 50 49 49 48 48 47 47 46 45 45 44 43 43 42 41 41 40 39 38 38 37 37 37 36 36 36
46 46 46 46 46 47 47 46 46 46 47 47 47 48 49 49 48 48 48 47 46 45 45 45 44 44 43 43 42 42 41 40 39 38 37 37 36 35 35 34 34 34 34
45 45 45 45 46 46 46 46 46 47 47 47 48 48 48 48 47 47 46 45 45 44 43 43 43 42 42 41 41 40 39 38 37 36 35 35 34 34 33 33 32 32 31
44 44 44 45 45 45 46 46 47 47 47 47 47 46 46 46 45 45 44 44 43 43 43 42 41 41 40 39 39 38 37 35 35 34 33 32 32 31 30 30 30 30 29
43 43 44 44 45 45 45 45 46 46 46 46 45 45 44 44 44 44 43 42 42 42 42 41 40 38 37 37 36 35 34 33 32 31 31 30 29 29 28 28 28 28 28
42 42 42 43 44 44 44 44 45 45 45 45 45 44 43 43 43 42 41 40 39 39 38 37 36 35 34 34 33 32 31 29 29 28 27 27 26 26 26 26 26 26 26
40 40 41 42 42 43 43 43 43 44 44 43 43 42 41 41 40 39 38 37 36 36 35 34 33 32 31 30 29 28 27 27 26 26 25 25 25 25 24 24 24 24 24
39 39 40 40 41 42 42 42 42 42 41 40 40 39 38 37 36 35 34 34 33 32 31 30 30 29 28 27 26 25 25 25 25 24 24 24 23 23 23 23 23 23 23
39 39 39 39 39 39 39 39 39 38 37 37 36 35 34 33 32 32 31 30 29 29 28 27 27 26 25 24 24 24 24 23 23 22 22 22 22 22 22 22 22 22 21
Wind_Direction
267 267 268 269 270 270 270 271 271 271 272 273 275 277 278 279 280 281 283 283 283 284 285 285 285 286 286 286 287 287 287 288 288 287 287 287 286 286 286 286 286 286 286
269 269 270 271 271 271 271 271 271 272 273 274 276 277 279 281 282 282 283 284 285 285 285 287 287 287 286 286 287 287 287 288 288 288 288 288 287 287 287 287 287 286 287
270 271 272 272 272 272 271 271 272 273 274 276 278 279 280 281 282 283 284 285 285 286 286 287 288 288 287 288 288 289 289 289 289 288 289 288 289 289 288 288 287 287 287
273 272 273 272 272 272 272 272 273 274 276 278 280 281 281 282 283 284 285 285 286 287 287 288 288 288 288 288 289 289 289 289 289 289 289 289 290 289 289 289 289 289 289
274 274 274 273 273 273 273 274 275 276 277 279 280 281 282 283 284 285 285 286 287 287 288 288 288 289 289 289 289 289 289 289 289 289 289 289 290 289 289 289 289 289 289
275 275 275 275 274 274 274 275 276 277 278 279 280 281 282 283 284 285 286 287 287 288 288 289 289 289 289 290 290 289 290 290 290 289 289 290 290 289 289 289 289 289 288
276 276 276 276 276 276 276 276 277 277 278 279 281 282 283 283 284 285 286 287 287 288 289 289 289 289 290 290 290 290 290 291 290 290 290 290 289 289 289 288 288 288 288
277 277 277 277 277 277 277 277 277 278 279 280 281 282 283 284 285 285 286 287 288 289 289 289 289 289 289 289 290 290 291 291 291 290 290 289 289 289 288 288 288 288 287
278 278 277 277 277 278 277 277 278 279 280 281 282 283 284 284 285 286 287 288 288 288 289 289 289 289 289 289 289 289 290 290 290 290 290 289 288 288 288 288 289 289 288
277 277 277 277 277 277 278 278 279 280 281 282 283 284 285 285 286 287 287 288 288 288 288 288 288 288 288 289 289 288 289 289 289 290 290 289 288 287 287 287 288 288 289
277 277 277 277 277 277 278 278 279 280 281 282 283 284 285 285 286 287 287 288 288 288 288 288 288 288 288 288 289 288 289 289 289 289 290 289 288 287 286 286 287 288 289
277 277 277 277 277 278 278 279 279 280 281 282 282 283 284 285 286 286 287 288 288 288 288 288 288 287 287 288 288 289 289 289 289 289 290 289 288 287 286 286 288 289 289
278 278 278 277 278 278 279 279 279 280 281 282 282 283 284 285 286 287 288 288 288 288 288 289 288 288 287 288 288 288 288 288 289 289 289 289 288 287 286 286 287 289 290
278 278 278 277 278 278 279 279 280 280 281 282 282 283 284 285 287 287 288 288 288 288 288 289 289 289 288 288 289 288 288 288 288 288 288 288 287 286 286 286 287 288 289
278 278 278 278 278 278 278 279 280 280 281 282 283 284 285 285 287 288 288 288 288 288 288 289 289 290 289 289 289 289 289 288 288 287 287 287 286 285 285 286 287 288 289
278 278 278 278 278 278 278 279 280 281 282 283 284 285 285 286 287 288 288 288 289 289 289 289 289 289 289 289 289 289 288 288 288 287 287 286 286 285 285 286 287 288 289
278 278 279 279 279 279 279 279 280 281 283 284 285 286 286 287 287 287 288 288 288 288 288 288 289 289 289 289 289 289 288 288 288 288 288 287 287 286 286 286 287 288 289
279 279 279 279 279 279 280 280 281 282 282 283 285 285 286 286 287 288 288 288 288 288 288 288 288 288 288 288 288 288 289 289 288 289 288 288 287 287 287 286 287 288 289
280 279 279 280 280 280 280 281 281 282 283 284 285 286 286 286 287 288 288 288 288 287 288 288 288 288 288 287 287 287 288 288 288 287 288 288 287 287 288 287 287 288 289
280 280 280 280 281 280 280 281 282 283 284 285 286 286 286 286 287 287 287 287 287 287 287 287 287 287 288 287 287 287 287 287 286 286 287 287 286 286 287 287 287 289 290
280 280 280 281 281 281 281 282 283 284 285 286 287 287 286 286 286 286 285 286 287 287 287 287 287 287 287 287 286 287 286 286 285 285 286 286 286 286 286 287 287 288 289
280 280 280 281 282 282 283 283 284 284 285 286 287 287 286 286 286 286 286 285 286 286 287 286 286 287 287 287 286 285 285 285 285 285 285 286 286 286 287 287 287 287 289
282 282 282 282 283 283 284 284 285 285 286 286 286 286 285 285 285 285 285 285 285 286 287 286 286 286 286 286 286 285 284 284 284 284 285 285 285 286 288 288 287 287 288
284 284 284 284 284 285 285 286 286 286 287 286 286 285 284 284 285 285 284 285 285 286 285 285 285 286 285 284 284 284 284 284 284 283 283 284 285 286 287 287 287 288 288
285 285 285 286 286 286 287 287 287 287 287 286 285 284 284 284 284 284 283 284 285 285 285 285 285 285 283 282 282 283 283 284 283 283 283 283 284 286 286 286 288 290 289
284 285 286 286 287 287 288 288 288 288 287 286 285 284 284 283 283 282 282 283 283 284 284 284 284 283 281 280 281 282 282 282 282 283 282 283 284 284 285 286 288 290 290
Height
5710 5710 5710 5709 5709 5709 5708 5708 5707 5707 5706 5706 5706 5705 5704 5703 5702 5700 5699 5697 5696 5694 5692 5690 5688 5686 5684 5681 5679 5676 5673 5670 5668 5666 5662 5659 5656 5653 5650 5647 5644 5641 5638
5701 5701 5700 5700 5699 5699 5698 5698 5697 5697 5696 5696 5695 5694 5693 5691 5690 5689 5687 5686 5684 5682 5680 5678 5675 5673 5670 5668 5665 5662 5659 5656 5654 5651 5648 5644 5641 5638 5636 5633 5630 5627 5624
5692 5692 5691 5690 5690 5689 5688 5688 5687 5687 5686 5685 5683 5682 5681 5679 5678 5677 5675 5674 5672 5670 5667 5665 5662 5660 5657 5654 5651 5648 5645 5642 5639 5637 5634 5630 5627 5624 5622 5618 5615 5612 5609
5683 5682 5681 5680 5679 5678 5678 5677 5676 5676 5675 5673 5672 5670 5669 5667 5666 5664 5663 5661 5659 5657 5654 5652 5649 5646 5643 5640 5637 5634 5631 5628 5625 5622 5619 5616 5613 5610 5607 5604 5601 5598 5595
5673 5672 5670 5669 5668 5668 5667 5666 5665 5664 5663 5662 5660 5658 5657 5655 5654 5652 5650 5648 5646 5644 5641 5638 5635 5632 5629 5626 5624 5621 5618 5615 5611 5608 5605 5603 5599 5596 5594 5590 5588 5584 5581
5662 5661 5659 5658 5657 5656 5655 5654 5653 5652 5651 5650 5648 5647 5645 5643 5641 5639 5637 5635 5633 5630 5628 5625 5622 5619 5616 5613 5610 5607 5604 5601 5597 5594 5592 5589 5585 5582 5579 5576 5573 5571 5568
5651 5649 5648 5647 5645 5644 5643 5642 5641 5640 5639 5637 5636 5634 5632 5630 5628 5626 5624 5622 5620 5617 5614 5612 5609 5605 5602 5599 5596 5593 5590 5586 5583 5581 5578 5574 5571 5569 5566 5563 5559 5556 5554
5639 5638 5636 5635 5633 5632 5631 5629 5628 5627 5626 5625 5623 5622 5620 5617 5615 5613 5611 5609 5606 5604 5601 5598 5595 5592 5588 5585 5582 5579 5576 5572 5569 5566 5564 5560 5557 5554 5551 5548 5545 5543 5540
5627 5625 5624 5622 5621 5620 5618 5617 5616 5615 5613 5612 5610 5608 5606 5604 5601 5599 5597 5595 5593 5590 5587 5584 5581 5578 5575 5572 5569 5566 5562 5559 5555 5552 5549 5545 5542 5539 5536 5534 5531 5529 5527
5614 5613 5611 5610 5608 5607 5606 5604 5603 5602 5600 5599 5597 5595 5593 5591 5588 5586 5583 5582 5579 5577 5574 5570 5567 5564 5560 5557 5554 5551 5548 5545 5541 5538 5535 5531 5528 5525 5522 5520 5518 5515 5513
5601 5600 5598 5597 5595 5594 5593 5591 5590 5588 5587 5586 5584 5582 5579 5577 5574 5572 5569 5567 5565 5562 5559 5556 5553 5549 5546 5543 5540 5537 5533 5530 5527 5524 5521 5518 5514 5511 5509 5506 5504 5502 5499
5588 5586 5585 5583 5582 5580 5579 5578 5576 5575 5573 5572 5570 5568 5565 5563 5560 5558 5555 5553 5550 5548 5545 5542 5538 5535 5532 5528 5525 5522 5519 5516 5513 5510 5508 5504 5501 5499 5496 5494 5491 5488 5486
5574 5573 5571 5570 5568 5567 5565 5564 5562 5561 5559 5557 5555 5554 5552 5549 5546 5543 5541 5538 5535 5533 5530 5527 5524 5520 5517 5514 5511 5507 5504 5501 5499 5497 5494 5491 5488 5486 5483 5481 5478 5476 5473
5561 5559 5558 5556 5554 5553 5551 5550 5548 5546 5545 5543 5541 5539 5537 5535 5532 5529 5526 5524 5521 5518 5515 5512 5509 5506 5502 5499 5496 5493 5490 5487 5485 5483 5480 5478 5475 5473 5470 5468 5466 5463 5461
5547 5545 5544 5542 5541 5539 5537 5536 5534 5533 5530 5529 5527 5525 5523 5521 5518 5514 5512 5509 5506 5503 5500 5498 5495 5491 5488 5485 5482 5479 5476 5473 5471 5469 5466 5464 5462 5460 5458 5455 5453 5451 5449
5533 5531 5530 5528 5526 5525 5523 5522 5520 5518 5516 5514 5512 5510 5508 5505 5503 5500 5497 5494 5491 5488 5485 5483 5480 5477 5474 5471 5469 5466 5463 5460 5457 5455 5453 5451 5449 5448 5446 5443 5441 5439 5437
5519 5517 5515 5514 5512 5511 5509 5508 5507 5505 5502 5500 5497 5495 5493 5490 5488 5485 5482 5479 5476 5473 5470 5468 5465 5463 5460 5457 5455 5452 5450 5447 5445 5443 5441 5439 5437 5435 5433 5431 5429 5427 5425
5504 5503 5501 5500 5498 5497 5495 5493 5492 5490 5489 5487 5483 5480 5478 5475 5473 5470 5467 5464 5462 5459 5456 5453 5451 5449 5446 5444 5441 5439 5437 5435 5433 5430 5429 5427 5425 5424 5422 5420 5418 5416 5414
5490 5488 5487 5485 5484 5482 5480 5479 5477 5475 5474 5472 5469 5466 5463 5460 5458 5455 5452 5450 5447 5445 5442 5440 5437 5435 5433 5430 5428 5426 5424 5422 5421 5419 5417 5415 5414 5412 5411 5409 5408 5406 5404
5476 5474 5472 5471 5469 5467 5466 5464 5462 5460 5459 5457 5454 5451 5448 5446 5444 5441 5438 5435 5433 5431 5429 5427 5424 5422 5419 5417 5415 5414 5412 5410 5409 5407 5406 5404 5403 5401 5400 5399 5397 5396 5394
5462 5460 5458 5457 5455 5453 5451 5449 5447 5446 5444 5442 5439 5436 5433 5432 5430 5427 5425 5422 5420 5418 5416 5413 5411 5409 5407 5405 5403 5402 5400 5399 5397 5396 5395 5394 5392 5391 5390 5389 5387 5386 5385
5448 5446 5445 5443 5441 5439 5437 5435 5433 5431 5429 5427 5425 5422 5419 5417 5415 5414 5412 5410 5407 5405 5403 5401 5399 5397 5395 5393 5391 5390 5389 5388 5387 5386 5385 5384 5383 5381 5380 5379 5378 5377 5376
5434 5433 5431 5429 5427 5425 5423 5421 5419 5417 5414 5412 5410 5408 5406 5404 5402 5400 5398 5396 5394 5393 5390 5389 5387 5386 5384 5382 5381 5380 5379 5378 5377 5376 5375 5375 5374 5373 5372 5371 5370 5369 5367
5422 5420 5418 5416 5414 5411 5409 5407 5405 5403 5401 5398 5396 5394 5393 5391 5389 5387 5386 5384 5382 5381 5379 5378 5376 5375 5374 5372 5371 5370 5369 5369 5368 5367 5367 5366 5366 5365 5364 5363 5362 5361 5359
5409 5407 5405 5403 5401 5398 5396 5394 5392 5389 5387 5385 5383 5382 5380 5378 5377 5375 5374 5373 5371 5370 5369 5367 5366 5365 5364 5363 5362 5362 5361 5360 5360 5359 5359 5358 5358 5357 5356 5355 5354 5353 5352
5397 5395 5393 5390 5388 5386 5384 5382 5379 5377 5375 5373 5371 5370 5368 5367 5366 5365 5364 5363 5362 5361 5359 5358 5357 5356 5356 5355 5354 5354 5353 5353 5352 5352 5351 5351 5350 5350 5349 5348 5348 5346 5345